INNOSAT-2 (43738 NORAD) Tracking and Keplerian Element Data

This shows tracking and keplerian element data for the satellite.

Feedback or suggestion? Click here.




ElementValue
Catalog43738
NameINNOSAT-2
Epoch Orbit3532
Epoch Day199.43000239
Epoch Year2019
RAAN270.0222
Inclination97.459
Eccentricity0.0023096
Argument of Perigee234.4093
Mean Anonmoly125.4995
Mean Motion15.28738212
Decay Rate1.463E-05
L11 43738U 18096V 19199.43000239 .00001463 00000-0 54768-4 0 9997
L22 43738 97.4590 270.0222 0023096 234.4093 125.4995 15.28738212 35328

Live tracking and technical data element details for INNOSAT-2 (NORAD 43738). INNOSAT-2 can be tracked NOW for your location showing map with azimuth and elevation plus other details from your city location.

Track the satellite on the map from your city or location and see movement details for azimuth, elevation, latitude, longitude, range, height, and movement on the map or in text.







IsCatalogInMostPopularTable: catalog: 43738, numindb: 131
Update: records affected: 1



GetName: 43738 INNOSAT-2

Hit Count: updated at: Fri, 19 Jul 2019 23:45:06 GMT